FENGYUN 1C DEB

Satellite information

Favourite Embed

Satellite Type and Status

DEBRISIN ORBIT

Key statistics

Satellite FENGYUN 1C DEB at a glance.

Uptime

9660

Days in orbit

Revolutions

≈ 14.0

Per day

Orbit

SSO

Sun Synchronous Orbit

Inclination

98.9

Latest

Satellite identification and parameters

Extended collection of information and parameters for FENGYUN 1C DEB.

Object identification

Identified? True

Debris? True

Object name: FENGYUN 1C DEB

International designator: 1999-025BCU

Object number (NORAD): 31002

Object ID (CCSDS): 31002

Country: PEOPLES REPUBLIC OF CHINA (PRC)

Current information (Y/N): Y

RCS size: SMALL

Orbital parameters

Period: 102.922 minutes

Inclination: 98.8889 deg

SMA: 7274.98 km

Apoapsis: 970.142 km

Periapsis: 823.548 km

RAAN: 305.8263 deg

Eccentricy: 0.01007526

Argument of periapsis: 138.1216 deg

Mean anomaly: 283.6678 deg

Mean motion: 13.99120278 rev/day

Mean motion (dot): 0.00000509 rev/day2

B* drag term: 0.00036431284 1/REarth

Two-line elements (TLE)

Creation date: Oct. 19, 2025, 10:30 a.m.

Reference frame: TEME

Reference center: EARTH

Epoch: Oct. 19, 2025, 5:55 a.m. UTC

TLE line 0: 0 FENGYUN 1C DEB

TLE line 1: 1 31002U 99025BCU 25292.24716586 .00000509 00000-0 36431-3 0 9994

TLE line 2: 2 31002 98.8889 305.8263 0100753 138.1216 283.6678 13.99120278948433

Live tracking on map

Real-time ground track for satellite FENGYUN 1C DEB.

In-orbit conjunctions

A list of the most updated potential collisions computed for object FENGYUN 1C DEB.

Target Orbit TCA Probability of collision Miss distance Type
DELTA 1 DEB SSO 2025-07-28 06:07:36 0.000117492 252.0 (m) DEBRIS
METEOR 2-12 DEB LEO 2025-03-25 13:30:02 0.000178735 180.0 (m) DEBRIS
COSMOS 1275 DEB LEO 2024-11-11 15:55:13 0.0002945181 268.0 (m) DEBRIS

Associated space launch

Chinese polar orbiting meteorological satellite

FENGYUN 1C DEB was lifted into orbit during the mission ‘Long March 4B | Feng Yun 1C’, on board a Long March 4B space rocket.

The launch took place on May 10, 1999, 1:33 a.m. from Launch Complex 7.

For more information about the launch, click the button.

Launch to space Long March 4B | Feng Yun 1C
Long March 4B | Feng Yun 1C

Agency: N/A

Status: Launch Successful

Launch date: May 10, 1999, 1:33 a.m. UTC

Rocket: Long March 4B

Launch pad: Launch Complex 7

Location: Taiyuan Satellite Launch Center, People's Republic of China

...

Latest news about this satellite

There are no fresh news available about this satellite. Check back as we update our databases every day.


Newsletter sign-up

Weekly statistics, charts and insights to help you stay on top of the space industry.